Time,TemperatureF,DewpointF,PressureIn,WindDirection,WindDirectionDegrees,WindSpeedMPH,WindSpeedGustMPH,Humidity,HourlyPrecipIn,Conditions,Clouds,dailyrainin,SoftwareType,DateUTC
2013-07-19 00:01:00,69.3,68.7,30.20,NE,44,0.0,0.0,98,0.00,,,0.00,meteohub,2013-07-19 04:01:00,
2013-07-19 00:02:00,69.3,68.7,30.20,NE,44,0.0,0.0,98,0.00,,,0.00,meteohub,2013-07-19 04:02:00,
2013-07-19 00:07:00,69.1,68.5,30.20,NE,44,0.0,0.0,98,0.00,,,0.00,meteohub,2013-07-19 04:07:00,
2013-07-19 00:13:00,68.9,68.4,30.20,NE,44,0.0,0.0,98,0.00,,,0.00,meteohub,2013-07-19 04:13:00,
2013-07-19 00:18:00,68.7,68.2,30.19,NE,44,0.0,0.0,98,0.00,,,0.00,meteohub,2013-07-19 04:18:00,
2013-07-19 00:23:00,68.7,68.2,30.19,NE,44,0.0,0.0,98,0.00,,,0.00,meteohub,2013-07-19 04:23:00,
2013-07-19 00:28:00,68.7,68.2,30.19,NE,44,0.0,0.0,98,0.00,,,0.00,meteohub,2013-07-19 04:28:00,
2013-07-19 00:33:00,68.9,68.4,30.20,NE,44,0.0,0.0,98,0.00,,,0.00,meteohub,2013-07-19 04:33:00,
2013-07-19 00:38:00,68.9,68.4,30.20,NE,44,0.0,0.0,98,0.00,,,0.00,meteohub,2013-07-19 04:38:00,
2013-07-19 00:43:00,68.9,68.4,30.19,NE,44,0.0,0.0,98,0.00,,,0.00,meteohub,2013-07-19 04:43:00,
2013-07-19 00:48:00,68.7,68.2,30.19,NE,44,0.0,0.0,98,0.00,,,0.00,meteohub,2013-07-19 04:48:00,
2013-07-19 00:53:00,68.5,68.0,30.19,NE,44,0.0,0.0,98,0.00,,,0.00,meteohub,2013-07-19 04:53:00,
2013-07-19 00:58:00,68.4,67.8,30.19,NE,44,0.0,0.0,98,0.00,,,0.00,meteohub,2013-07-19 04:58:00,
2013-07-19 01:03:00,68.2,67.6,30.19,NE,44,0.0,0.0,98,0.00,,,0.00,meteohub,2013-07-19 05:03:00,
2013-07-19 01:08:00,68.2,67.6,30.19,NE,44,0.0,0.0,98,0.00,,,0.00,meteohub,2013-07-19 05:08:00,
2013-07-19 01:13:00,68.0,67.5,30.19,NE,44,0.0,0.0,98,0.00,,,0.00,meteohub,2013-07-19 05:13:00,
2013-07-19 01:18:00,67.8,67.3,30.19,NE,44,0.0,0.0,98,0.00,,,0.00,meteohub,2013-07-19 05:18:00,
2013-07-19 01:23:00,67.6,67.1,30.19,NE,44,0.0,0.0,98,0.00,,,0.00,meteohub,2013-07-19 05:23:00,
2013-07-19 01:28:00,67.6,67.1,30.19,NE,44,0.0,0.0,98,0.00,,,0.00,meteohub,2013-07-19 05:28:00,
2013-07-19 01:33:00,67.5,66.9,30.19,NE,44,0.0,0.0,98,0.00,,,0.00,meteohub,2013-07-19 05:33:00,
2013-07-19 01:38:00,67.6,67.3,30.19,NE,44,0.0,0.0,99,0.00,,,0.00,meteohub,2013-07-19 05:38:00,
2013-07-19 01:43:00,67.5,66.9,30.19,NE,44,0.0,0.0,98,0.00,,,0.00,meteohub,2013-07-19 05:43:00,
2013-07-19 01:48:00,67.3,66.7,30.19,NE,44,0.0,0.0,98,0.00,,,0.00,meteohub,2013-07-19 05:48:00,
2013-07-19 01:53:00,67.3,66.7,30.19,NE,44,0.0,0.0,98,0.00,,,0.00,meteohub,2013-07-19 05:53:00,
2013-07-19 01:58:00,67.3,66.7,30.19,NE,44,0.0,0.0,98,0.00,,,0.00,meteohub,2013-07-19 05:58:00,
2013-07-19 02:03:00,67.1,66.6,30.19,NE,44,0.0,0.0,98,0.00,,,0.00,meteohub,2013-07-19 06:03:00,
2013-07-19 02:08:00,66.9,66.4,30.19,NE,44,0.0,0.0,98,0.00,,,0.00,meteohub,2013-07-19 06:08:00,
2013-07-19 02:13:00,66.7,66.4,30.19,NE,44,0.0,0.0,99,0.00,,,0.00,meteohub,2013-07-19 06:13:00,
2013-07-19 02:18:00,66.7,66.4,30.19,NE,44,0.0,0.0,99,0.00,,,0.00,meteohub,2013-07-19 06:18:00,
2013-07-19 02:23:00,66.6,66.0,30.19,NE,44,0.0,0.0,98,0.00,,,0.00,meteohub,2013-07-19 06:23:00,
2013-07-19 02:28:00,66.4,65.8,30.18,NE,44,0.0,0.0,98,0.00,,,0.00,meteohub,2013-07-19 06:28:00,
2013-07-19 02:33:00,66.2,65.7,30.18,NE,44,0.0,0.0,98,0.00,,,0.00,meteohub,2013-07-19 06:33:00,
2013-07-19 02:38:00,66.0,65.7,30.18,NE,44,0.0,0.0,99,0.00,,,0.00,meteohub,2013-07-19 06:38:00,
2013-07-19 02:43:00,65.8,65.5,30.17,NE,44,0.0,0.0,99,0.00,,,0.00,meteohub,2013-07-19 06:43:00,
2013-07-19 02:48:00,65.7,65.3,30.17,NE,44,0.0,0.0,99,0.00,,,0.00,meteohub,2013-07-19 06:48:00,
2013-07-19 02:53:00,65.7,65.3,30.17,NE,44,0.0,0.0,99,0.00,,,0.00,meteohub,2013-07-19 06:53:00,
2013-07-19 02:59:00,65.7,65.3,30.17,NE,44,0.0,0.0,99,0.00,,,0.00,meteohub,2013-07-19 06:59:00,
2013-07-19 03:04:00,65.7,65.3,30.17,NE,44,0.0,0.0,99,0.00,,,0.00,meteohub,2013-07-19 07:04:00,
2013-07-19 03:09:00,65.7,65.3,30.17,NE,44,0.0,0.0,99,0.00,,,0.00,meteohub,2013-07-19 07:09:00,
2013-07-19 03:14:00,65.7,65.3,30.17,NE,44,0.0,0.0,99,0.00,,,0.00,meteohub,2013-07-19 07:14:00,
2013-07-19 03:19:00,65.5,65.1,30.17,NE,44,0.0,0.0,99,0.00,,,0.00,meteohub,2013-07-19 07:19:00,
2013-07-19 03:24:00,65.5,65.1,30.17,NE,44,0.0,0.0,99,0.00,,,0.00,meteohub,2013-07-19 07:24:00,
2013-07-19 03:29:00,65.1,64.8,30.17,NE,44,0.0,0.0,99,0.00,,,0.00,meteohub,2013-07-19 07:29:00,
2013-07-19 03:34:00,65.1,64.8,30.17,NE,44,0.0,0.0,99,0.00,,,0.00,meteohub,2013-07-19 07:34:00,
2013-07-19 03:39:00,64.9,64.6,30.17,NE,44,0.0,0.0,99,0.00,,,0.00,meteohub,2013-07-19 07:39:00,
2013-07-19 03:44:00,64.9,64.6,30.17,NE,44,0.0,0.0,99,0.00,,,0.00,meteohub,2013-07-19 07:44:00,
2013-07-19 03:49:00,64.9,64.6,30.17,NE,44,0.0,0.0,99,0.00,,,0.00,meteohub,2013-07-19 07:49:00,
2013-07-19 03:54:00,64.8,64.4,30.17,NE,44,0.0,0.0,99,0.00,,,0.00,meteohub,2013-07-19 07:54:00,
2013-07-19 03:59:00,64.8,64.4,30.17,NE,44,0.0,0.0,99,0.00,,,0.00,meteohub,2013-07-19 07:59:00,
2013-07-19 04:04:00,64.6,64.2,30.17,NE,44,0.0,0.0,99,0.00,,,0.00,meteohub,2013-07-19 08:04:00,
2013-07-19 04:09:00,64.6,64.2,30.17,NE,44,0.0,0.0,99,0.00,,,0.00,meteohub,2013-07-19 08:09:00,
2013-07-19 04:14:00,64.6,64.2,30.17,NE,44,0.0,0.0,99,0.00,,,0.00,meteohub,2013-07-19 08:14:00,
2013-07-19 04:19:00,64.2,63.9,30.16,NE,44,0.0,0.0,99,0.00,,,0.00,meteohub,2013-07-19 08:19:00,
2013-07-19 04:24:00,64.4,64.0,30.16,NE,44,0.0,0.0,99,0.00,,,0.00,meteohub,2013-07-19 08:24:00,
2013-07-19 04:29:00,64.2,63.9,30.17,NE,44,0.0,0.0,99,0.00,,,0.00,meteohub,2013-07-19 08:29:00,
2013-07-19 04:34:00,64.0,63.7,30.17,NE,44,0.0,0.0,99,0.00,,,0.00,meteohub,2013-07-19 08:34:00,
2013-07-19 04:39:00,63.9,63.5,30.16,NE,44,0.0,0.0,99,0.00,,,0.00,meteohub,2013-07-19 08:39:00,
2013-07-19 04:44:00,63.9,63.5,30.16,NE,44,0.0,0.0,99,0.00,,,0.00,meteohub,2013-07-19 08:44:00,
2013-07-19 04:49:00,63.7,63.3,30.16,NE,44,0.0,0.0,99,0.00,,,0.00,meteohub,2013-07-19 08:49:00,
2013-07-19 04:54:00,63.7,63.3,30.16,NE,44,0.0,0.0,99,0.00,,,0.00,meteohub,2013-07-19 08:54:00,
2013-07-19 04:59:00,63.5,63.1,30.16,NE,44,0.0,0.0,99,0.00,,,0.00,meteohub,2013-07-19 08:59:00,
2013-07-19 05:04:00,63.3,63.0,30.16,NE,44,0.0,0.0,99,0.00,,,0.00,meteohub,2013-07-19 09:04:00,
2013-07-19 05:09:00,63.5,63.1,30.16,NE,44,0.0,0.0,99,0.00,,,0.00,meteohub,2013-07-19 09:09:00,
2013-07-19 05:14:00,63.5,63.1,30.16,NE,44,0.0,0.0,99,0.00,,,0.00,meteohub,2013-07-19 09:14:00,
2013-07-19 05:19:00,63.3,63.0,30.16,NE,44,0.0,0.0,99,0.00,,,0.00,meteohub,2013-07-19 09:19:00,
2013-07-19 05:24:00,63.1,62.8,30.16,NE,44,0.0,0.0,99,0.00,,,0.00,meteohub,2013-07-19 09:24:00,
2013-07-19 05:29:00,63.1,62.8,30.16,NE,44,0.0,0.0,99,0.00,,,0.00,meteohub,2013-07-19 09:29:00,
2013-07-19 05:34:00,63.0,62.6,30.16,NE,44,0.0,0.0,99,0.00,,,0.00,meteohub,2013-07-19 09:34:00,
2013-07-19 05:39:00,63.0,62.6,30.16,NE,44,0.0,0.0,99,0.00,,,0.00,meteohub,2013-07-19 09:39:00,
2013-07-19 05:44:00,62.8,62.4,30.16,NE,44,0.0,0.0,99,0.00,,,0.00,meteohub,2013-07-19 09:44:00,
2013-07-19 05:49:00,62.6,62.2,30.17,NE,44,0.0,0.0,99,0.00,,,0.00,meteohub,2013-07-19 09:49:00,
2013-07-19 05:54:00,62.8,62.8,30.16,NE,44,0.0,0.0,100,0.00,,,0.00,meteohub,2013-07-19 09:54:00,
2013-07-19 05:59:00,62.8,62.8,30.17,NE,44,0.0,0.0,100,0.00,,,0.00,meteohub,2013-07-19 09:59:00,
2013-07-19 06:04:00,62.6,62.6,30.16,NE,44,0.0,0.0,100,0.00,,,0.00,meteohub,2013-07-19 10:04:00,
2013-07-19 06:09:00,62.4,62.4,30.17,NE,44,0.0,0.0,100,0.00,,,0.00,meteohub,2013-07-19 10:09:00,
2013-07-19 06:14:00,62.4,62.1,30.17,NE,44,0.0,0.0,99,0.00,,,0.00,meteohub,2013-07-19 10:14:00,
2013-07-19 06:19:00,62.4,62.4,30.17,NE,44,0.0,0.0,100,0.00,,,0.00,meteohub,2013-07-19 10:19:00,
2013-07-19 06:24:00,62.2,62.2,30.17,NE,44,0.0,0.0,100,0.00,,,0.00,meteohub,2013-07-19 10:24:00,
2013-07-19 06:29:00,62.2,62.2,30.17,NE,44,0.0,0.0,100,0.00,,,0.00,meteohub,2013-07-19 10:29:00,
2013-07-19 06:34:00,62.2,62.2,30.17,NE,44,0.0,0.0,100,0.00,,,0.00,meteohub,2013-07-19 10:34:00,
2013-07-19 06:39:00,62.2,62.2,30.17,NE,44,0.0,0.0,100,0.00,,,0.00,meteohub,2013-07-19 10:39:00,
2013-07-19 06:44:00,62.1,62.1,30.17,NE,44,0.0,0.0,100,0.00,,,0.00,meteohub,2013-07-19 10:44:00,
2013-07-19 06:49:00,62.1,62.1,30.17,NE,44,0.0,0.0,100,0.00,,,0.00,meteohub,2013-07-19 10:49:00,
2013-07-19 06:54:00,62.1,62.1,30.17,NE,44,0.0,0.0,100,0.00,,,0.00,meteohub,2013-07-19 10:54:00,
2013-07-19 06:59:00,62.1,62.1,30.17,NE,44,0.0,0.0,100,0.00,,,0.00,meteohub,2013-07-19 10:59:00,
2013-07-19 07:04:00,62.1,62.1,30.17,NE,44,0.0,0.0,100,0.00,,,0.00,meteohub,2013-07-19 11:04:00,
2013-07-19 07:09:00,62.2,62.2,30.17,NE,44,0.0,0.0,100,0.00,,,0.00,meteohub,2013-07-19 11:09:00,
2013-07-19 07:14:00,62.2,62.2,30.17,NE,44,0.0,0.0,100,0.00,,,0.00,meteohub,2013-07-19 11:14:00,
2013-07-19 07:19:00,62.2,62.2,30.18,NE,44,0.0,0.0,100,0.00,,,0.00,meteohub,2013-07-19 11:19:00,
2013-07-19 07:24:00,62.4,62.4,30.18,NE,44,0.0,0.0,100,0.00,,,0.00,meteohub,2013-07-19 11:24:00,
2013-07-19 07:29:00,62.4,62.4,30.18,NE,44,0.0,0.0,100,0.00,,,0.00,meteohub,2013-07-19 11:29:00,
2013-07-19 07:34:00,63.1,63.1,30.18,NE,44,0.0,0.0,100,0.00,,,0.00,meteohub,2013-07-19 11:34:00,
2013-07-19 07:39:00,63.9,63.9,30.18,NE,44,0.0,0.0,100,0.00,,,0.00,meteohub,2013-07-19 11:39:00,
2013-07-19 07:44:00,64.2,64.2,30.18,NE,44,0.0,0.0,100,0.00,,,0.00,meteohub,2013-07-19 11:44:00,
2013-07-19 07:49:00,64.9,64.9,30.18,NE,44,0.0,0.0,100,0.00,,,0.00,meteohub,2013-07-19 11:49:00,
2013-07-19 07:54:00,65.7,65.3,30.18,NE,44,0.0,0.0,99,0.00,,,0.00,meteohub,2013-07-19 11:54:00,
2013-07-19 07:59:00,66.6,66.2,30.18,NE,44,0.0,0.0,99,0.00,,,0.00,meteohub,2013-07-19 11:59:00,
2013-07-19 08:04:00,67.3,66.7,30.18,NE,44,0.0,0.0,98,0.00,,,0.00,meteohub,2013-07-19 12:04:00,
2013-07-19 08:10:00,68.0,66.6,30.19,NE,44,0.0,0.0,95,0.00,,,0.00,meteohub,2013-07-19 12:10:00,
2013-07-19 08:15:00,68.4,66.6,30.19,NE,44,0.0,0.0,94,0.00,,,0.00,meteohub,2013-07-19 12:15:00,
2013-07-19 08:20:00,69.1,66.7,30.19,NE,44,0.0,0.0,92,0.00,,,0.00,meteohub,2013-07-19 12:20:00,
2013-07-19 08:25:00,69.4,66.7,30.19,NE,44,0.0,0.0,91,0.00,,,0.00,meteohub,2013-07-19 12:25:00,
2013-07-19 08:30:00,69.6,66.9,30.19,NE,44,0.0,0.0,91,0.00,,,0.00,meteohub,2013-07-19 12:30:00,
2013-07-19 08:35:00,70.0,67.5,30.18,NE,46,0.0,0.0,92,0.00,,,0.00,meteohub,2013-07-19 12:35:00,
2013-07-19 08:40:00,70.5,67.8,30.18,NE,46,0.0,2.0,91,0.00,,,0.00,meteohub,2013-07-19 12:40:00,
2013-07-19 08:45:00,71.1,67.6,30.19,NE,50,0.0,2.0,89,0.00,,,0.00,meteohub,2013-07-19 12:45:00,
2013-07-19 08:50:00,71.2,67.8,30.19,NE,46,0.0,1.0,89,0.00,,,0.00,meteohub,2013-07-19 12:50:00,
2013-07-19 08:55:00,71.1,67.6,30.19,NE,46,0.0,0.0,89,0.00,,,0.00,meteohub,2013-07-19 12:55:00,
2013-07-19 09:00:00,71.8,68.4,30.19,NE,47,0.0,0.0,89,0.00,,,0.00,meteohub,2013-07-19 13:00:00,
2013-07-19 09:05:00,72.3,68.5,30.19,NE,46,0.0,0.0,88,0.00,,,0.00,meteohub,2013-07-19 13:05:00,
2013-07-19 09:10:00,72.3,68.9,30.19,NE,46,1.0,2.0,89,0.00,,,0.00,meteohub,2013-07-19 13:10:00,
2013-07-19 09:15:00,72.7,69.3,30.19,NE,44,1.0,2.0,89,0.00,,,0.00,meteohub,2013-07-19 13:15:00,
2013-07-19 09:20:00,72.9,69.4,30.19,NE,44,1.0,2.0,89,0.00,,,0.00,meteohub,2013-07-19 13:20:00,
2013-07-19 09:25:00,73.6,70.2,30.19,NE,44,0.0,2.0,89,0.00,,,0.00,meteohub,2013-07-19 13:25:00,
2013-07-19 09:26:00,73.6,69.8,30.19,NE,44,1.0,2.0,88,0.00,,,0.00,meteohub,2013-07-19 13:26:00,
2013-07-19 09:31:00,73.9,70.5,30.19,NE,44,0.0,2.0,89,0.00,,,0.00,meteohub,2013-07-19 13:31:00,
2013-07-19 09:36:00,74.7,70.9,30.19,NE,44,0.0,2.0,88,0.00,,,0.00,meteohub,2013-07-19 13:36:00,
2013-07-19 09:42:00,75.6,70.7,30.19,NE,49,2.0,2.0,85,0.00,,,0.00,meteohub,2013-07-19 13:42:00,
2013-07-19 09:47:00,76.3,71.1,30.19,NE,51,0.0,2.0,84,0.00,,,0.00,meteohub,2013-07-19 13:47:00,
2013-07-19 09:52:00,77.2,71.6,30.19,NE,43,0.0,2.0,83,0.00,,,0.00,meteohub,2013-07-19 13:52:00,
2013-07-19 09:57:00,77.5,71.6,30.19,NE,39,0.0,2.0,82,0.00,,,0.00,meteohub,2013-07-19 13:57:00,
2013-07-19 10:02:00,77.9,70.5,30.19,NE,54,0.0,2.0,78,0.00,,,0.00,meteohub,2013-07-19 14:02:00,
2013-07-19 10:07:00,78.4,70.7,30.18,NNW,337,0.0,2.0,77,0.00,,,0.00,meteohub,2013-07-19 14:07:00,
2013-07-19 10:12:00,78.8,71.1,30.18,NW,309,0.0,4.0,77,0.00,,,0.00,meteohub,2013-07-19 14:12:00,
2013-07-19 10:17:00,79.3,71.1,30.18,NW,304,0.0,4.0,76,0.00,,,0.00,meteohub,2013-07-19 14:17:00,
2013-07-19 10:22:00,79.3,70.0,30.18,SW,225,1.0,5.0,73,0.00,,,0.00,meteohub,2013-07-19 14:22:00,
2013-07-19 10:27:00,79.7,71.1,30.18,SW,235,1.0,6.0,75,0.00,,,0.00,meteohub,2013-07-19 14:27:00,
2013-07-19 10:32:00,79.9,72.0,30.18,South,191,2.0,6.0,77,0.00,,,0.00,meteohub,2013-07-19 14:32:00,
2013-07-19 10:37:00,79.9,70.0,30.18,SW,222,4.0,6.0,72,0.00,,,0.00,meteohub,2013-07-19 14:37:00,
2013-07-19 10:42:00,79.7,70.7,30.18,SW,214,4.0,7.0,74,0.00,,,0.00,meteohub,2013-07-19 14:42:00,
2013-07-19 10:47:00,79.7,70.3,30.18,SW,218,3.0,7.0,73,0.00,,,0.00,meteohub,2013-07-19 14:47:00,
2013-07-19 10:52:00,79.9,71.2,30.18,SW,221,3.0,7.0,75,0.00,,,0.00,meteohub,2013-07-19 14:52:00,
2013-07-19 10:57:00,80.1,71.4,30.18,SW,235,2.0,7.0,75,0.00,,,0.00,meteohub,2013-07-19 14:57:00,
2013-07-19 11:02:00,80.2,71.2,30.18,SW,222,3.0,7.0,74,0.00,,,0.00,meteohub,2013-07-19 15:02:00,
2013-07-19 11:07:00,80.8,71.2,30.18,SW,235,3.0,6.0,73,0.00,,,0.00,meteohub,2013-07-19 15:07:00,
2013-07-19 11:12:00,80.6,70.7,30.18,SW,219,2.0,6.0,72,0.00,,,0.00,meteohub,2013-07-19 15:12:00,
2013-07-19 11:17:00,80.8,70.9,30.18,SSW,200,2.0,7.0,72,0.00,,,0.00,meteohub,2013-07-19 15:17:00,
2013-07-19 11:22:00,81.0,71.1,30.18,SSE,166,4.0,7.0,72,0.00,,,0.00,meteohub,2013-07-19 15:22:00,
2013-07-19 11:27:00,81.1,71.6,30.18,SW,217,2.0,7.0,73,0.00,,,0.00,meteohub,2013-07-19 15:27:00,
2013-07-19 11:32:00,81.5,71.2,30.18,South,172,6.0,7.0,71,0.00,,,0.00,meteohub,2013-07-19 15:32:00,
2013-07-19 11:37:00,81.5,70.7,30.18,SSW,210,3.0,8.0,70,0.00,,,0.00,meteohub,2013-07-19 15:37:00,
2013-07-19 11:42:00,81.7,71.8,30.18,SW,222,5.0,9.0,72,0.00,,,0.00,meteohub,2013-07-19 15:42:00,
2013-07-19 11:47:00,81.7,72.1,30.18,WSW,240,0.0,9.0,73,0.00,,,0.00,meteohub,2013-07-19 15:47:00,
2013-07-19 11:52:00,82.0,70.0,30.18,SE,143,2.0,9.0,67,0.00,,,0.00,meteohub,2013-07-19 15:52:00,
2013-07-19 11:57:00,82.2,71.1,30.18,South,184,5.0,8.0,69,0.00,,,0.00,meteohub,2013-07-19 15:57:00,
2013-07-19 12:02:00,82.2,71.1,30.18,SSW,203,4.0,8.0,69,0.00,,,0.00,meteohub,2013-07-19 16:02:00,
2013-07-19 12:07:00,82.6,70.5,30.18,SW,218,3.0,8.0,67,0.00,,,0.00,meteohub,2013-07-19 16:07:00,
2013-07-19 12:12:00,82.0,71.2,30.17,WSW,250,1.0,7.0,70,0.00,,,0.00,meteohub,2013-07-19 16:12:00,
2013-07-19 12:17:00,82.0,70.9,30.17,SW,224,5.0,7.0,69,0.00,,,0.00,meteohub,2013-07-19 16:17:00,
2013-07-19 12:22:00,82.2,71.4,30.17,SW,229,1.0,6.0,70,0.00,,,0.00,meteohub,2013-07-19 16:22:00,
2013-07-19 12:27:00,82.4,71.6,30.17,SW,226,3.0,6.0,70,0.00,,,0.00,meteohub,2013-07-19 16:27:00,
2013-07-19 12:32:00,82.8,72.3,30.17,SW,226,3.0,5.0,71,0.00,,,0.00,meteohub,2013-07-19 16:32:00,
2013-07-19 12:37:00,82.9,71.2,30.16,SSE,164,4.0,8.0,68,0.00,,,0.00,meteohub,2013-07-19 16:37:00,
2013-07-19 12:42:00,83.1,72.0,30.16,SW,219,4.0,8.0,69,0.00,,,0.00,meteohub,2013-07-19 16:42:00,
2013-07-19 12:47:00,82.6,71.8,30.16,SSE,165,2.0,8.0,70,0.00,,,0.00,meteohub,2013-07-19 16:47:00,
2013-07-19 12:52:00,82.6,71.4,30.16,WSW,241,2.0,7.0,69,0.00,,,0.00,meteohub,2013-07-19 16:52:00,
2013-07-19 12:57:00,82.8,69.3,30.15,SW,225,2.0,6.0,64,0.00,,,0.00,meteohub,2013-07-19 16:57:00,
2013-07-19 13:02:00,83.5,72.7,30.15,SW,235,3.0,6.0,70,0.00,,,0.00,meteohub,2013-07-19 17:02:00,
2013-07-19 13:07:00,83.7,70.7,30.15,SSW,204,3.0,6.0,65,0.00,,,0.00,meteohub,2013-07-19 17:07:00,
2013-07-19 13:12:00,83.7,73.6,30.15,SW,224,1.0,6.0,72,0.00,,,0.00,meteohub,2013-07-19 17:12:00,
2013-07-19 13:17:00,84.4,71.8,30.15,West,273,0.0,8.0,66,0.00,,,0.00,meteohub,2013-07-19 17:17:00,
2013-07-19 13:22:00,84.6,72.0,30.14,South,174,6.0,8.0,66,0.00,,,0.00,meteohub,2013-07-19 17:22:00,
2013-07-19 13:27:00,84.4,71.8,30.14,SSE,163,3.0,8.0,66,0.00,,,0.00,meteohub,2013-07-19 17:27:00,
2013-07-19 13:32:00,84.6,73.2,30.14,SSW,210,2.0,8.0,69,0.00,,,0.00,meteohub,2013-07-19 17:32:00,
2013-07-19 13:37:00,84.9,72.7,30.14,SE,142,2.0,7.0,67,0.00,,,0.00,meteohub,2013-07-19 17:37:00,
2013-07-19 13:42:00,84.7,73.0,30.14,SW,215,5.0,5.0,68,0.00,,,0.00,meteohub,2013-07-19 17:42:00,
2013-07-19 13:47:00,84.6,72.3,30.13,South,188,1.0,7.0,67,0.00,,,0.00,meteohub,2013-07-19 17:47:00,
2013-07-19 13:52:00,84.7,73.9,30.13,WSW,255,1.0,8.0,70,0.00,,,0.00,meteohub,2013-07-19 17:52:00,
2013-07-19 13:57:00,84.6,71.4,30.12,SSE,167,2.0,8.0,65,0.00,,,0.00,meteohub,2013-07-19 17:57:00,
2013-07-19 14:02:00,84.6,72.3,30.12,SW,225,2.0,8.0,67,0.00,,,0.00,meteohub,2013-07-19 18:02:00,
2013-07-19 14:07:00,84.0,71.4,30.12,SW,229,3.0,5.0,66,0.00,,,0.00,meteohub,2013-07-19 18:07:00,
2013-07-19 14:12:00,83.8,71.2,30.11,SW,225,1.0,6.0,66,0.00,,,0.00,meteohub,2013-07-19 18:12:00,
2013-07-19 14:17:00,84.6,72.3,30.11,SE,144,2.0,7.0,67,0.00,,,0.00,meteohub,2013-07-19 18:17:00,
2013-07-19 14:22:00,84.0,72.3,30.11,SW,221,4.0,7.0,68,0.00,,,0.00,meteohub,2013-07-19 18:22:00,
2013-07-19 14:27:00,84.0,72.0,30.11,South,181,3.0,8.0,67,0.00,,,0.00,meteohub,2013-07-19 18:27:00,
2013-07-19 14:32:00,84.6,72.3,30.11,SSW,195,4.0,8.0,67,0.00,,,0.00,meteohub,2013-07-19 18:32:00,
2013-07-19 14:37:00,84.7,72.5,30.10,West,278,1.0,8.0,67,0.00,,,0.00,meteohub,2013-07-19 18:37:00,
2013-07-19 14:42:00,84.9,71.4,30.10,SE,128,3.0,8.0,64,0.00,,,0.00,meteohub,2013-07-19 18:42:00,
2013-07-19 14:47:00,85.3,73.6,30.10,SW,224,1.0,6.0,68,0.00,,,0.00,meteohub,2013-07-19 18:47:00,
2013-07-19 14:52:00,85.5,73.2,30.10,SW,226,5.0,8.0,67,0.00,,,0.00,meteohub,2013-07-19 18:52:00,
2013-07-19 14:57:00,85.1,72.9,30.10,WSW,240,2.0,8.0,67,0.00,,,0.00,meteohub,2013-07-19 18:57:00,
2013-07-19 15:02:00,85.3,73.9,30.10,South,173,6.0,8.0,69,0.00,,,0.00,meteohub,2013-07-19 19:02:00,
2013-07-19 15:08:00,85.1,73.8,30.10,SSW,197,3.0,9.0,69,0.00,,,0.00,meteohub,2013-07-19 19:08:00,
2013-07-19 15:13:00,84.6,73.8,30.10,WSW,242,2.0,9.0,70,0.00,,,0.00,meteohub,2013-07-19 19:13:00,
2013-07-19 15:18:00,84.4,72.7,30.09,SW,219,7.0,9.0,68,0.00,,,0.00,meteohub,2013-07-19 19:18:00,
2013-07-19 15:23:00,83.8,74.7,30.09,SW,226,2.0,7.0,74,0.00,,,0.00,meteohub,2013-07-19 19:23:00,
2013-07-19 15:28:00,83.8,73.0,30.09,SSW,194,4.0,8.0,70,0.00,,,0.00,meteohub,2013-07-19 19:28:00,
2013-07-19 15:33:00,83.8,72.1,30.09,SSW,213,5.0,8.0,68,0.00,,,0.00,meteohub,2013-07-19 19:33:00,
2013-07-19 15:38:00,83.8,73.0,30.09,South,177,3.0,8.0,70,0.00,,,0.00,meteohub,2013-07-19 19:38:00,
2013-07-19 15:43:00,83.8,73.4,30.09,SSW,209,7.0,8.0,71,0.00,,,0.00,meteohub,2013-07-19 19:43:00,
2013-07-19 15:48:00,83.8,72.5,30.09,SSW,207,2.0,8.0,69,0.00,,,0.00,meteohub,2013-07-19 19:48:00,
2013-07-19 15:53:00,83.5,72.7,30.09,WSW,242,0.0,8.0,70,0.00,,,0.00,meteohub,2013-07-19 19:53:00,
2013-07-19 15:58:00,83.5,73.6,30.08,SSW,204,6.0,7.0,72,0.00,,,0.00,meteohub,2013-07-19 19:58:00,
2013-07-19 16:03:00,83.5,72.7,30.08,South,188,6.0,7.0,70,0.00,,,0.00,meteohub,2013-07-19 20:03:00,
2013-07-19 16:08:00,83.7,73.2,30.08,SW,215,4.0,8.0,71,0.00,,,0.00,meteohub,2013-07-19 20:08:00,
2013-07-19 16:13:00,83.7,73.2,30.08,SE,141,7.0,8.0,71,0.00,,,0.00,meteohub,2013-07-19 20:13:00,
2013-07-19 16:18:00,83.8,73.0,30.07,South,184,7.0,10.0,70,0.00,,,0.00,meteohub,2013-07-19 20:18:00,
2013-07-19 16:23:00,84.4,74.3,30.07,SW,235,4.0,10.0,72,0.00,,,0.00,meteohub,2013-07-19 20:23:00,
2013-07-19 16:28:00,84.0,73.6,30.07,WSW,242,2.0,10.0,71,0.00,,,0.00,meteohub,2013-07-19 20:28:00,
2013-07-19 16:33:00,83.7,73.6,30.07,SW,224,5.0,10.0,72,0.00,,,0.00,meteohub,2013-07-19 20:33:00,
2013-07-19 16:38:00,82.9,72.5,30.07,SSE,163,5.0,6.0,71,0.00,,,0.00,meteohub,2013-07-19 20:38:00,
2013-07-19 16:43:00,82.8,72.9,30.08,SW,229,2.0,10.0,72,0.00,,,0.00,meteohub,2013-07-19 20:43:00,
2013-07-19 16:48:00,82.8,73.6,30.07,WSW,248,4.0,11.0,74,0.00,,,0.00,meteohub,2013-07-19 20:48:00,
2013-07-19 16:53:00,83.3,73.8,30.07,West,267,1.0,11.0,73,0.00,,,0.00,meteohub,2013-07-19 20:53:00,
2013-07-19 16:58:00,82.9,73.8,30.08,SW,233,3.0,11.0,74,0.00,,,0.00,meteohub,2013-07-19 20:58:00,
2013-07-19 17:03:00,82.9,74.7,30.07,West,273,3.0,10.0,76,0.00,,,0.00,meteohub,2013-07-19 21:03:00,
2013-07-19 17:08:00,82.8,73.6,30.07,WSW,238,2.0,10.0,74,0.00,,,0.00,meteohub,2013-07-19 21:08:00,
2013-07-19 17:13:00,82.2,73.0,30.06,SSE,153,4.0,10.0,74,0.00,,,0.00,meteohub,2013-07-19 21:13:00,
2013-07-19 17:18:00,82.2,73.9,30.06,South,180,3.0,9.0,76,0.00,,,0.00,meteohub,2013-07-19 21:18:00,
2013-07-19 17:23:00,82.2,72.0,30.06,South,191,5.0,9.0,71,0.00,,,0.00,meteohub,2013-07-19 21:23:00,
2013-07-19 17:28:00,82.0,72.5,30.06,SW,215,3.0,10.0,73,0.00,,,0.00,meteohub,2013-07-19 21:28:00,
2013-07-19 17:33:00,82.2,72.0,30.07,WSW,243,5.0,10.0,71,0.00,,,0.00,meteohub,2013-07-19 21:33:00,
2013-07-19 17:38:00,82.0,72.1,30.07,West,259,2.0,10.0,72,0.00,,,0.00,meteohub,2013-07-19 21:38:00,
2013-07-19 17:43:00,81.7,71.4,30.07,SSE,166,5.0,7.0,71,0.00,,,0.00,meteohub,2013-07-19 21:43:00,
2013-07-19 17:48:00,81.7,72.1,30.07,SE,126,0.0,10.0,73,0.00,,,0.00,meteohub,2013-07-19 21:48:00,
2013-07-19 17:53:00,81.9,71.1,30.07,West,274,1.0,10.0,70,0.00,,,0.00,meteohub,2013-07-19 21:53:00,
2013-07-19 17:58:00,81.3,71.1,30.07,South,183,2.0,9.0,71,0.00,,,0.00,meteohub,2013-07-19 21:58:00,
2013-07-19 18:03:00,81.1,69.6,30.06,SW,215,6.0,8.0,68,0.00,,,0.00,meteohub,2013-07-19 22:03:00,
2013-07-19 18:08:00,81.1,70.3,30.06,SW,228,1.0,10.0,70,0.00,,,0.00,meteohub,2013-07-19 22:08:00,
2013-07-19 18:13:00,81.3,70.5,30.06,SSE,158,2.0,10.0,70,0.00,,,0.00,meteohub,2013-07-19 22:13:00,
2013-07-19 18:18:00,81.5,70.3,30.06,South,179,2.0,10.0,69,0.00,,,0.00,meteohub,2013-07-19 22:18:00,
2013-07-19 18:23:00,81.0,70.7,30.06,SW,224,2.0,6.0,71,0.00,,,0.00,meteohub,2013-07-19 22:23:00,
2013-07-19 18:28:00,80.8,70.9,30.06,WSW,240,0.0,6.0,72,0.00,,,0.00,meteohub,2013-07-19 22:28:00,
2013-07-19 18:33:00,81.0,72.0,30.06,ESE,110,0.0,6.0,74,0.00,,,0.00,meteohub,2013-07-19 22:33:00,
2013-07-19 18:38:00,81.1,71.6,30.06,SW,221,0.0,4.0,73,0.00,,,0.00,meteohub,2013-07-19 22:38:00,
2013-07-19 18:43:00,81.1,71.2,30.06,SW,216,1.0,4.0,72,0.00,,,0.00,meteohub,2013-07-19 22:43:00,
2013-07-19 18:48:00,81.0,71.4,30.06,SW,225,3.0,4.0,73,0.00,,,0.00,meteohub,2013-07-19 22:48:00,
2013-07-19 18:53:00,81.0,71.1,30.06,SSW,203,4.0,6.0,72,0.00,,,0.00,meteohub,2013-07-19 22:53:00,
2013-07-19 18:58:00,80.8,71.2,30.06,South,188,3.0,6.0,73,0.00,,,0.00,meteohub,2013-07-19 22:58:00,
2013-07-19 19:03:00,80.4,70.9,30.06,SSW,207,0.0,8.0,73,0.00,,,0.00,meteohub,2013-07-19 23:03:00,
2013-07-19 19:08:00,80.4,71.4,30.06,South,184,3.0,8.0,74,0.00,,,0.00,meteohub,2013-07-19 23:08:00,
2013-07-19 19:13:00,80.1,71.4,30.06,SW,224,1.0,6.0,75,0.00,,,0.00,meteohub,2013-07-19 23:13:00,
2013-07-19 19:18:00,79.7,71.8,30.06,South,173,3.0,5.0,77,0.00,,,0.00,meteohub,2013-07-19 23:18:00,
2013-07-19 19:23:00,79.3,71.4,30.06,SSW,202,1.0,5.0,77,0.00,,,0.00,meteohub,2013-07-19 23:23:00,
2013-07-19 19:28:00,79.2,71.8,30.06,SW,231,2.0,5.0,78,0.00,,,0.00,meteohub,2013-07-19 23:28:00,
2013-07-19 19:33:00,79.2,72.1,30.06,SSE,163,2.0,5.0,79,0.00,,,0.00,meteohub,2013-07-19 23:33:00,
2013-07-19 19:38:00,79.0,72.3,30.06,SW,218,2.0,5.0,80,0.00,,,0.00,meteohub,2013-07-19 23:38:00,
2013-07-19 19:43:00,78.8,72.1,30.06,WSW,243,0.0,5.0,80,0.00,,,0.00,meteohub,2013-07-19 23:43:00,
2013-07-19 19:49:00,78.6,72.3,30.06,SSE,168,2.0,4.0,81,0.00,,,0.00,meteohub,2013-07-19 23:49:00,
2013-07-19 19:54:00,78.4,72.1,30.06,SW,226,2.0,5.0,81,0.00,,,0.00,meteohub,2013-07-19 23:54:00,
2013-07-19 19:59:00,78.4,72.1,30.07,SW,228,0.0,5.0,81,0.00,,,0.00,meteohub,2013-07-19 23:59:00,
2013-07-19 20:04:00,78.3,72.0,30.07,SW,226,2.0,5.0,81,0.00,,,0.00,meteohub,2013-07-20 00:04:00,
2013-07-19 20:09:00,78.1,72.1,30.07,SSW,207,0.0,5.0,82,0.00,,,0.00,meteohub,2013-07-20 00:09:00,
2013-07-19 20:14:00,77.9,72.0,30.07,SW,222,0.0,3.0,82,0.00,,,0.00,meteohub,2013-07-20 00:14:00,
2013-07-19 20:19:00,77.7,72.1,30.06,SW,222,0.0,3.0,83,0.00,,,0.00,meteohub,2013-07-20 00:19:00,
2013-07-19 20:24:00,77.4,71.4,30.06,SW,222,0.0,3.0,82,0.00,,,0.00,meteohub,2013-07-20 00:24:00,
2013-07-19 20:29:00,77.4,72.1,30.07,East,84,1.0,2.0,84,0.00,,,0.00,meteohub,2013-07-20 00:29:00,
2013-07-19 20:34:00,76.8,72.7,30.07,East,82,0.0,1.0,87,0.00,,,0.00,meteohub,2013-07-20 00:34:00,
2013-07-19 20:39:00,76.3,72.5,30.06,NE,53,2.0,2.0,88,0.00,,,0.00,meteohub,2013-07-20 00:39:00,
2013-07-19 20:44:00,75.6,72.1,30.07,NE,46,1.0,2.0,89,0.00,,,0.00,meteohub,2013-07-20 00:44:00,
2013-07-19 20:49:00,75.0,71.6,30.07,NE,46,0.0,2.0,89,0.00,,,0.00,meteohub,2013-07-20 00:49:00,
2013-07-19 20:54:00,74.8,71.8,30.08,NE,46,0.0,2.0,90,0.00,,,0.00,meteohub,2013-07-20 00:54:00,
2013-07-19 20:59:00,74.7,71.6,30.08,NE,46,0.0,2.0,90,0.00,,,0.00,meteohub,2013-07-20 00:59:00,
2013-07-19 21:04:00,74.3,71.4,30.08,NE,47,0.0,2.0,91,0.00,,,0.00,meteohub,2013-07-20 01:04:00,
2013-07-19 21:09:00,73.9,71.1,30.08,NE,46,0.0,1.0,91,0.00,,,0.00,meteohub,2013-07-20 01:09:00,
2013-07-19 21:14:00,73.8,70.9,30.08,NE,46,0.0,1.0,91,0.00,,,0.00,meteohub,2013-07-20 01:14:00,
2013-07-19 21:19:00,73.4,70.9,30.08,NE,46,0.0,1.0,92,0.00,,,0.00,meteohub,2013-07-20 01:19:00,
2013-07-19 21:24:00,73.2,70.7,30.08,NE,47,0.0,1.0,92,0.00,,,0.00,meteohub,2013-07-20 01:24:00,
2013-07-19 21:29:00,73.0,70.9,30.08,NE,46,0.0,2.0,93,0.00,,,0.00,meteohub,2013-07-20 01:29:00,
2013-07-19 21:34:00,72.9,71.1,30.08,NE,47,0.0,2.0,94,0.00,,,0.00,meteohub,2013-07-20 01:34:00,
2013-07-19 21:39:00,72.9,71.1,30.08,NE,46,0.0,2.0,94,0.00,,,0.00,meteohub,2013-07-20 01:39:00,
2013-07-19 21:44:00,72.9,71.1,30.09,NE,46,0.0,1.0,94,0.00,,,0.00,meteohub,2013-07-20 01:44:00,
2013-07-19 21:49:00,72.7,70.9,30.09,NE,46,0.0,1.0,94,0.00,,,0.00,meteohub,2013-07-20 01:49:00,
2013-07-19 21:54:00,72.3,70.5,30.09,NE,46,0.0,1.0,94,0.00,,,0.00,meteohub,2013-07-20 01:54:00,
2013-07-19 21:59:00,72.3,70.9,30.09,NE,46,1.0,1.0,95,0.00,,,0.00,meteohub,2013-07-20 01:59:00,
2013-07-19 22:04:00,72.1,70.7,30.10,NE,47,0.0,1.0,95,0.00,,,0.00,meteohub,2013-07-20 02:04:00,
2013-07-19 22:09:00,72.0,70.5,30.10,NE,46,1.0,2.0,95,0.00,,,0.00,meteohub,2013-07-20 02:09:00,
2013-07-19 22:14:00,72.0,70.5,30.10,NE,47,0.0,2.0,95,0.00,,,0.00,meteohub,2013-07-20 02:14:00,
2013-07-19 22:19:00,72.0,70.5,30.10,NE,46,0.0,2.0,95,0.00,,,0.00,meteohub,2013-07-20 02:19:00,
2013-07-19 22:24:00,71.8,70.3,30.10,NE,46,0.0,1.0,95,0.00,,,0.00,meteohub,2013-07-20 02:24:00,
2013-07-19 22:29:00,71.6,70.2,30.11,NE,47,0.0,1.0,95,0.00,,,0.00,meteohub,2013-07-20 02:29:00,
2013-07-19 22:34:00,71.4,70.2,30.11,NE,46,0.0,0.0,96,0.00,,,0.00,meteohub,2013-07-20 02:34:00,
2013-07-19 22:39:00,71.2,70.0,30.10,NE,47,0.0,1.0,96,0.00,,,0.00,meteohub,2013-07-20 02:39:00,
2013-07-19 22:44:00,71.2,70.0,30.11,NE,46,0.0,1.0,96,0.00,,,0.00,meteohub,2013-07-20 02:44:00,
2013-07-19 22:49:00,71.2,70.0,30.11,NE,46,0.0,1.0,96,0.00,,,0.00,meteohub,2013-07-20 02:49:00,
2013-07-19 22:54:00,71.2,70.0,30.10,NE,46,0.0,0.0,96,0.00,,,0.00,meteohub,2013-07-20 02:54:00,
2013-07-19 22:59:00,71.1,69.8,30.10,NE,46,0.0,0.0,96,0.00,,,0.00,meteohub,2013-07-20 02:59:00,
2013-07-19 23:05:00,70.9,69.6,30.10,NE,47,0.0,1.0,96,0.00,,,0.00,meteohub,2013-07-20 03:05:00,
2013-07-19 23:10:00,70.9,69.6,30.10,NE,47,0.0,1.0,96,0.00,,,0.00,meteohub,2013-07-20 03:10:00,
2013-07-19 23:15:00,70.7,69.4,30.11,NE,46,0.0,1.0,96,0.00,,,0.00,meteohub,2013-07-20 03:15:00,
2013-07-19 23:20:00,70.5,69.3,30.11,NE,47,0.0,0.0,96,0.00,,,0.00,meteohub,2013-07-20 03:20:00,
2013-07-19 23:25:00,70.3,69.4,30.11,NE,46,0.0,0.0,97,0.00,,,0.00,meteohub,2013-07-20 03:25:00,
2013-07-19 23:30:00,70.3,69.4,30.11,NE,47,0.0,0.0,97,0.00,,,0.00,meteohub,2013-07-20 03:30:00,
2013-07-19 23:35:00,70.3,69.4,30.11,NE,46,0.0,0.0,97,0.00,,,0.00,meteohub,2013-07-20 03:35:00,
2013-07-19 23:40:00,70.2,69.3,30.11,NE,46,0.0,0.0,97,0.00,,,0.00,meteohub,2013-07-20 03:40:00,
2013-07-19 23:45:00,70.2,69.3,30.11,NE,46,0.0,0.0,97,0.00,,,0.00,meteohub,2013-07-20 03:45:00,
2013-07-19 23:50:00,70.2,69.3,30.11,NE,46,0.0,0.0,97,0.00,,,0.00,meteohub,2013-07-20 03:50:00,
2013-07-19 23:55:00,70.2,69.3,30.12,NE,46,0.0,0.0,97,0.00,,,0.00,meteohub,2013-07-20 03:55:00,